Regional Weather Roundup
Issued by NWS

Home | Current Version | Previous Version | Graphics & Text | Print | Product List | Glossary On
Versions: 1 2 3 4 5 6 7 8 9 10 11 12 13 14 15 16 17 18 19 20 21 22 23 24 25 26 27 28 29 30 31 32 33 34 35 36 37 38 39 40 41 42 43 44 45 46 47 48 49 50
000
ASUS43 KMKX 280525
RWRWI

WISCONSIN REGIONAL WEATHER ROUNDUP
NATIONAL WEATHER SERVICE MILWAUKEE/SULLIVAN WI
1100 PM CST THU NOV 27 2014

NOTE: "FAIR" INDICATES FEW OR NO CLOUDS BELOW 12,000 FEET WITH NO
SIGNIFICANT WEATHER AND/OR OBSTRUCTIONS TO VISIBILITY.

WIZ001-002-006>008-014>016-023>028-280600-
NORTHWEST WISCONSIN

CITY           SKY/WX    TMP DP  RH WIND       PRES   REMARKS
SUPERIOR ARPT  CLOUDY     6  -2  69 SW3       30.31F
ASHLAND        PTCLDY     1  -3  83 CALM      30.31F
HAYWARD        MOCLDY     1  -3  83 CALM      30.28F
SIREN          MOCLDY     7  -2  67 SE3       30.29F
CUMBERLAND     CLOUDY     9  -2  61 S8        30.27F WCI  -4
RICE LAKE      CLOUDY     6  -1  71 S3        30.31S
CHETEK         CLOUDY     6   0  75 CALM      30.30F
LADYSMITH      MOCLDY     4  -1  79 CALM      30.31S
EAU CLAIRE     CLOUDY     8  -1  66 S3        30.32S
MENOMONIE      CLOUDY    10   0  65 SE6       30.32F WCI   0
NEW RICHMOND   CLOUDY     9   0  68 S9        30.30F WCI  -4
OSCEOLA        CLOUDY    10   1  68 S6        30.33F WCI   0
$$

WIZ003>005-009-010-017-018-280600-
NORTH CENTRAL WISCONSIN

CITY           SKY/WX    TMP DP  RH WIND       PRES   REMARKS
MANITOWISH WTR PTCLDY   -12 -17  80 CALM      30.23S
ARBOR VITAE    PTCLDY    -5 -10  79 CALM      30.23F
WOODRUFF       PTCLDY    -5 -10  79 CALM      30.23F
RHINELANDER    PTCLDY    -8 -12  83 CALM      30.24F
EAGLE RIVER    FAIR      -6 -11  79 CALM      30.23S
LAND O LAKES   PTCLDY   -12 -17  78 CALM      30.24F
PHILLIPS       MOCLDY    -5  -8  86 CALM      30.25F
TOMAHAWK       PTCLDY   -12 -16  81 CALM      30.27S
MEDFORD        MOCLDY     1  -3  83 CALM      30.26S
MERRILL        PTCLDY    -5  -9  84 CALM      30.28S
$$

WIZ029-030-035-036-043>047-280600-
CENTRAL WISCONSIN

CITY           SKY/WX    TMP DP  RH WIND       PRES   REMARKS
WAUSAU         PTCLDY     1  -3  83 CALM      30.29S
MOSINEE        PTCLDY     1   0  92 CALM      30.30S
MARSHFIELD     MOCLDY     3  -2  79 CALM      30.30S
STEVENS POINT  PTCLDY    -4  -7  84 CALM      30.32S
WAUPACA        CLEAR      1  -4  82 CALM      30.35S
WAUTOMA        MOCLDY    -1  -5  83 CALM      30.36F
WISC RAPIDS    PTCLDY     2  -3  80 CALM      30.34F
CAMP DOUGLAS   CLOUDY     8   6  92 S2        30.33F
$$

WIZ011>013-019>022-031-037>040-048>050-280600-
NORTHEAST WISCONSIN

CITY           SKY/WX    TMP DP  RH WIND       PRES   REMARKS
ANTIGO         PTCLDY   -12 -16  84 CALM      30.27R
SHAWANO        PTCLDY     4  -1  81 CALM      30.34S
OCONTO         MOCLDY    -3  -5  87 CALM      30.35S
STURGEON BAY   PTCLDY     5   0  78 S3        30.32S
GREEN BAY      MOCLDY     2  -1  88 CALM      30.35S
MANITOWOC      PTCLDY     6   3  87 W5        30.36S WCI  -3
APPLETON       PTCLDY     3   0  85 W9        30.34S WCI -11
CLINTONVILLE   PTCLDY     0  -6  78 CALM      30.34S
OSHKOSH        MOCLDY     6   0  76 MISG      30.35S
$$

WIZ032>034-041-042-053>061-280600-
SOUTHWEST WISCONSIN

CITY           SKY/WX    TMP DP  RH WIND       PRES   REMARKS
LA CROSSE      CLOUDY    12   3  67 SE5       30.34F WCI   4
SPARTA         MOCLDY     8   4  81 E3        30.33F
VIROQUA        CLOUDY     9   2  75 SE6       30.27F WCI  -1
BOSCOBEL       CLOUDY    13   4  67 CALM      30.37S
PRAIRIE DU CHI CLOUDY    13   1  57 CALM      30.36S
PLATTEVILLE    CLOUDY    13   4  69 CALM      30.34R
$$

WIZ056-057-062-063-064-067-068-280600-
SOUTH CENTRAL WISCONSIN

CITY           SKY/WX    TMP DP  RH WIND       PRES   REMARKS
REEDSBURG      PTCLDY     7   3  83 CALM      30.34F
BARABOO/DELLS  PTCLDY     8   4  83 CALM      30.33F
LONE ROCK      MOCLDY    14   4  64 E6        30.35F WCI   5
MINERAL POINT  CLOUDY    14   5  67 CALM      30.31F
MADISON        CLOUDY    11   6  81 CALM      30.35F
MIDDLETON      MOCLDY    13   7  76 CALM      30.34F
WATERTOWN      MOCLDY     8   6  89 CALM      30.36F
MONROE         MOCLDY    12   9  85 CALM      30.32S
JANESVILLE     MOCLDY    12   9  85 CALM      30.36F
$$

WIZ051-052-058>065-066-070>072-280600-
SOUTHEAST WISCONSIN

CITY           SKY/WX    TMP DP  RH WIND       PRES   REMARKS
MILWAUKEE      MOCLDY    14   7  73 W5        30.38S WCI   6
WAUKESHA       MOCLDY    10   7  85 CALM      30.37S
MILWAUKEE/TIMM PTCLDY    10   7  85 CALM      30.39R
RACINE         PTCLDY    12   6  77 W5        30.40S WCI   4
BURLINGTON     PTCLDY     7   5  90 CALM      30.37F
KENOSHA        PTCLDY     9   6  88 W3        30.38F
FOND DU LAC    MOCLDY     2  -3  80 S3        30.36S
SHEBOYGAN      PTCLDY     3  -1  83 W3        30.35F
WEST BEND      PTCLDY     5   1  85 SW3       30.36S
JUNEAU         MOCLDY     6   3  88 CALM      30.37S
$$

LSZ147-162-280600-
LAKE SUPERIOR

STATION/POSITION TIME  TEMP    WIND        PRES    WAVE
                       AIR SEA DIR/SP/G            HT/PER
                 (UTC) (F)     (DEG/KT/KT) (MB)    (FT/S)
DEVILS ISLAND    0500   13     220/ 12/ 15 1027.1F
PORT WING        0400    4     150/  3/  4 1026.8F
SAXON HARBOR     0400   -1     200/  3/ 15 1026.8F
$$

LMZ867-665-643>646-280600-
LAKE MICHIGAN

STATION/POSITION TIME  TEMP    WIND        PRES    WAVE
                       AIR SEA DIR/SP/G            HT/PER
                 (UTC) (F)     (DEG/KT/KT) (MB)    (FT/S)
CHAMBERS ISLAND  0400   15     320/  8/ 12 1027.4F
N MID LAKE BUOY  0450   18 42  320/  6/ 10 1027.8F   2/ 4
NORTHPORT PIER   0413   17     330/  8/ 14 1027.1F
SISTER BAY       0328          320/ 15/ 18   N/A
KEWAUNEE LAKESHO 0500    6     300/  4/  6 1026.8R
SHEBOYGAN LAKESH 0500   10 34  280/  8/  9 1029.7R
PORT WASHINGTON  0440   11     280/  6/  9 1029.5F
MILWAUKEE LAKESH 0500   15     290/  6/  7   N/A
S MID LAKE BUOY  0450   23 42  300/  6/ 10 1029.3F   4/ 7
KENOSHA   LAKESH 0500   15     290/  5/  6 1028.8S
$$

TC  - TEMPERATURE IN CELSIUS
VSB - VISIBILITY IN STATUTE MILES
WCI - WIND CHILL INDEX
HX  - HEAT INDEX



USA.gov is the U.S. government's official web portal to all federal, state and local government web resources and services.